Regional Weather Roundup
Issued by NWS

Home | Current Version | Previous Version | Text Only | Print | Product List | Glossary Off
Versions: 1 2 3 4 5 6 7 8 9 10 11 12 13 14 15 16 17 18 19 20 21 22 23 24 25 26 27 28 29 30 31 32 33 34 35 36 37 38 39 40 41 42 43 44 45 46 47 48 49 50

000
ASUS43 KMPX 240010
RWRMN
WEATHER ROUNDUP FOR MINNESOTA
NATIONAL WEATHER SERVICE TWIN CITIES/CHANHASSEN MN
700 PM CDT TUE MAY 23 2017


NOTE: "FAIR" INDICATES FEW OR NO CLOUDS BELOW 12,000 FEET WITH NO
SIGNIFICANT WEATHER AND/OR OBSTRUCTIONS TO VISIBILITY. N/A MEANS
CURRENT SKY AND/OR WEATHER CONDITIONS ARE NOT AVAILABLE.

MNZ060>063-068>070-240100-
   Twin Cities Metro

CITY           SKY/WX    TMP DP  RH WIND       PRES   REMARKS
TWIN CITIES    CLOUDY    59  46  62 E10       29.79F
6HR MIN TEMP:  58; 6HR MAX TEMP:  61; 6HR PCP: TRACE;

ST PAUL        CLOUDY    59  47  64 NE8       29.80S
CRYSTAL        PTSUNNY   58  44  60 N13       29.79S
BLAINE         PTSUNNY   63  46  55 N13G18    29.80S
LAKEVILLE      CLOUDY    55  48  76 NE7       29.79S
EDEN PRAIRIE   CLOUDY    59  46  62 N7        29.79R
6HR MIN TEMP:  55; 6HR MAX TEMP:  62; 6HR PCP:  0.05;

SOUTH ST PAUL  CLOUDY    59  46  60 NE5       29.79F
LAKE ELMO      CLOUDY    57  48  72 CALM      29.81S
$$
MNZ001>005-007-008-013>017-022>024-027-028-240100-
   Northwest Minnesota

CITY           SKY/WX    TMP DP  RH WIND       PRES   REMARKS
BEMIDJI        CLOUDY    52  43  71 N9        29.93S
HALLOCK        MOSUNNY   66  34  30 E7        29.95F
ROSEAU         SUNNY     63  43  48 E8        29.96S
WARROAD        SUNNY     61  45  55 E7        29.96F
THIEF RVR FALL CLOUDY    57  42  57 NE9       29.97S
CROOKSTON      CLOUDY    59  41  51 E12G17      N/A
FOSSTON        CLOUDY    52  46  82 N9        29.96S
DETROIT LAKES  CLOUDY    54  45  71 NE9       29.94S
MOORHEAD       PTSUNNY   55  45  67 N13       29.95S
PARK RAPIDS    CLOUDY    53  42  66 N8        29.91R
MAHNOMEN       CLOUDY    53  43  69 N15       29.94S
$$
MNZ006-009>011-018-025>026-240100-
   North Central Minnesota

CITY           SKY/WX    TMP DP  RH WIND       PRES   REMARKS
BAUDETTE       PTSUNNY   58  40  51 E8        29.94F
FLAG ISLAND    MOSUNNY   57  45  62 S7        29.93F
INTL FALLS     CLOUDY    55  44  66 N3        29.94S
6HR MIN TEMP:  51; 6HR MAX TEMP:  58; 6HR PCP: TRACE;

WASKISH        MOSUNNY   55  45  67 E6        29.94F
BIG FORK       PTSUNNY   54  43  66 NE8       29.93R
LONGVILLE      MOSUNNY   54  46  76 N6        29.90R
GRAND RAPIDS   CLOUDY    54  44  69 N8        29.91S
CRANE LAKE     CLOUDY    54  43  66 E3        29.94S
ORR            CLOUDY    54  39  58 NE5       29.89S
COOK           CLOUDY    54  43  66 NE7       29.92R
WALKER         CLOUDY    52  44  73 NE5       29.91S
$$
MNZ012-019>021-037-240100-
   Northeast Minnesota

CITY           SKY/WX    TMP DP  RH WIND       PRES   REMARKS
DULUTH         CLOUDY    50  45  83 E10       29.88S
6HR MIN TEMP:  50; 6HR MAX TEMP:  56; 6HR PCP: TRACE;

ELY            CLOUDY    52  41  66 NE5       29.90S
HIBBING        CLOUDY    52  44  74 NE12      29.89S
EVELETH        CLOUDY    53  41  64 NE10      29.90S
DULUTH HARBOR  CLOUDY    45  45 100 NE12      29.91S
TWO HARBORS    CLOUDY    52  46  82 E7        29.88S FOG
SILVER BAY     CLOUDY    48  46  93 NE5       29.89R
GRAND MARAIS     N/A     45  42  89 CALM      29.90R
G MARAIS ARPRT CLOUDY    48  39  71 N7        29.90S
$$
MNZ029>031-032-039>041-046>048-054>057-064-240100-
   West Central Minnesota

CITY           SKY/WX    TMP DP  RH WIND       PRES   REMARKS
FERGUS FALLS   MOSUNNY   55  46  71 NE9G16    29.90S
WHEATON        PTSUNNY   57  45  62 N14       29.92S
MORRIS         CLOUDY    57  46  67 N17       29.87S
ALEXANDRIA     MOSUNNY   55  46  71 N17       29.88S
ELBOW LAKE     PTSUNNY   56  46  69 NE14G20   29.90R
WADENA         CLOUDY    54  45  71 N9        29.89S
GLENWOOD       MOSUNNY   55  43  62 N8        29.87S
APPLETON       PTSUNNY   59  45  58 N12       29.87R
BENSON         SUNNY     61  43  51 NE10G18   29.88S
ORTONVILLE     PTSUNNY   57  48  72 N16       29.88S
MADISON        MOSUNNY   57  48  72 NW9       29.87S
WILLMAR        FAIR      57  48  72 NE6       29.86S
$$
MNZ033>034-036-042>043-049>051-058-059-240100-
   Central Minnesota

CITY           SKY/WX    TMP DP  RH WIND       PRES   REMARKS
ST CLOUD       CLOUDY    57  46  66 N7        29.84S
6HR MIN TEMP:  51; 6HR MAX TEMP:  60; 6HR PCP:  0.01;

SAUK CENTRE    MOCLDY    58  41  53 N12       29.85F
PAYNESVILLE    MOSUNNY   56  47  71 NE10      29.85S
AITKIN         CLOUDY    54  46  76 NE12      29.86S
PINE RIVER     CLOUDY    52  48  87 N7        29.93S
BRAINERD       CLOUDY    54  47  77 N12       29.88S
STAPLES        DRIZZLE   52  46  82 N7        29.89S
LONG PRAIRIE   CLOUDY    55  43  62 N12       29.87S
LITTLE FALLS   PTSUNNY   55  43  62 N6        29.86S
LITCHFIELD     PTSUNNY   57  48  72 N12       29.84S
BUFFALO        PTSUNNY   58  44  57 N12G17    29.83S
MAPLE LAKE     PTSUNNY   56  49  77 N10       29.84S
HUTCHINSON     CLOUDY    56  46  70 N10G18    29.84S
$$
MNZ037-044-045-052-053-240100-
   East Central Minnesota

CITY           SKY/WX    TMP DP  RH WIND       PRES   REMARKS
PRINCETON      CLOUDY    61  46  59 N10       29.84R
MORA           MOSUNNY   55  41  58 NE5       29.85S
CAMBRIDGE      CLOUDY    61  45  55 N5        29.81S
RUSH CITY      CLOUDY    56  46  69 NE8G16    29.84R
MOOSE LAKE     CLOUDY    52  43  71 NE9       29.86R
HINCKLEY       MOCLDY    55  45  67 N9        29.84S
CLOQUET        CLOUDY    48  43  81 E10       29.88S
MCGREGOR       CLOUDY    54  46  76 N6G17     29.88R
$$
MNZ071>073-080-081-089-090-097-098-240100-
   Southwest Minnesota

CITY           SKY/WX    TMP DP  RH WIND       PRES   REMARKS
MONTEVIDEO     CLOUDY    57  50  77 NE6       29.86F
CANBY          MOSUNNY   57  49  74 N12       29.88S
MARSHALL       LGT RAIN  53  49  86 N14       29.86R
REDWOOD FALLS  PTSUNNY   58  45  62 N12G20    29.83S
OLIVIA         PTSUNNY   59  48  67 N18       29.83S
PIPESTONE      PTSUNNY   55  43  62 N13       29.85S
WINDOM         MOSUNNY   54  45  71 NE6       29.82S
WORTHINGTON    CLOUDY    52  46  80 N9        29.83S
JACKSON        PTSUNNY   52  45  76 VRB10     29.82S
TRACY          CLOUDY    56  47  72 NE12      29.84S
SLAYTON        PTSUNNY   53  47  82 N10       29.85R
$$
MNZ065>067-074>077-082>085-091>093-240100-
   South Central Minnesota

CITY           SKY/WX    TMP DP  RH WIND       PRES   REMARKS
MANKATO          N/A     56  49  77 N6        29.80S
NEW ULM        LGT RAIN  52  48  87 CALM      29.82R
ST JAMES       LGT RAIN  52  48  87 NE6       29.83R
FAIRMONT       LGT RAIN  53  47  79 N10       29.80F
GLENCOE        PTSUNNY   57  50  76 N9G17     29.80F
FARIBAULT      CLOUDY    55  48  76 N6        29.79F
OWATONNA       LGT RAIN  52  46  82 N5        29.79S
WASECA         LGT RAIN  52  46  82 NE3       29.81R
ALBERT LEA     LGT RAIN  52  52 100 N10       29.78S
$$
MNZ078>079-086>088-094>096-240100-
   Southeast Minnesota

CITY           SKY/WX    TMP DP  RH WIND       PRES   REMARKS
ROCHESTER      CLOUDY    51  50  96 N13       29.77S
6HR MIN TEMP:  49; 6HR MAX TEMP:  52; 6HR PCP:  0.23;

RED WING       LGT RAIN  55  48  76 CALM      29.77S
STANTON        CLOUDY    58  49  72 NE8       29.78S
DODGE CENTER   LGT RAIN  50  48  93 N7        29.77S
WINONA         CLOUDY    55  46  71 N7        29.74S
AUSTIN         LGT RAIN  50  46  87 N8        29.76S
PRESTON        CLOUDY    51  47  87 N8        29.75S
$$
ABBREVIATIONS USED IN REMARKS
   TC - TEMPERATURES IN CELSIUS
  WCI - WIND CHILL INDEX
   HX - HEAT INDEX
  VSB - VISIBILITY
$$




USA.gov is the U.S. government's official web portal to all federal, state and local government web resources and services.